Tracking 20092 objects as of 14-Dec-2019
HD Live streaming from Space Station
objects crossing your sky now

FENGYUN 1C DEB

Track FENGYUN 1C DEB now!
10-day predictions


NORAD ID: 30468
Int'l Code: 1999-025AGF
Perigee: 810.8 km
Apogee: 935.3 km
Inclination: 99.1 °
Period: 102.3 minutes
Semi major axis: 7244 km
RCS: 0.042 m2 (small)
Launch date: May 10, 1999
Source: People's Republic of China (PRC)
Launch site: Taiyaun Space Center, China (TSC)

Note: This is SATELLITE DEBRIS
aabbcc
Your satellite tracking list
Your tracking list is empty




NASA's NSSDC Master Catalog

Two Line Element Set (TLE):
1 30468U 99025AGF 19347.63425682 +.00000557 +00000-0 +34140-3 0  9998
2 30468 099.0845 030.0983 0085942 096.4778 054.7746 14.08097545658892
Source of the keplerian elements: AFSPC